Погода в Голенюве

Польша     53°33′49″N   14°49′44″E
темп.,
°C
ветер,
м/с
пор.,
м/с
влажн.,
%
обл.,
%
осадки,
мм/ч
давл.,
гПа
погр.,
м
28 февраля, вс
вс2801:00+2зюз369267 0.0 1036198
04:00+2з389659 0.0 1035268
07:00+1з389734 0.0 1034239
10:00+5зсз368753 0.0 1034393
13:00+8сз367160 0.0 1034645
16:00+8ссз36710 0.0 1033672
19:00+3ссз12930 0.0 103422
22:00+3з12940 0.0 103422
1 марта, пн
пн101:00+2зюз12950 0.0 103522
04:00+1зюз12950 0.0 103422
07:00+1юз12950 0.0 103521
10:00+5зюз23800 0.0 1035271
13:00+9з24620 0.0 1035538
16:00+10з24610 0.0 1033520
19:00+5з23810 0.0 103452
22:00+4з23880 0.0 103490
2 марта, вт
вт201:00+3з23940 0.0 103464
04:00+2з23950 0.0 103270
07:00+2з23950 0.0 103367
10:00+7зсз25760 0.0 1033322
13:00+10зсз25600 0.0 1033554
16:00+10сз24620 0.0 1032544
19:00+5сз11820 0.0 103222
22:00+4ссз11890 0.0 103222
3 марта, ср
ср301:00+3зсз11890 0.0 103222
04:00+2зюз11880 0.0 103122
07:00+2зюз11890 0.0 103022
10:00+8юз12680 0.0 1030258
13:00+12юз23530 0.0 1028540
16:00+11юз23580 0.0 1026587
19:00+6ююз227214 0.0 102422
22:00+5ююз238481 0.0 102336
4 марта, чт
чт401:00+4юз239358 0.0 102057
04:00+4юз239468 0.0 101891
07:00+3зюз259584 0.0 1016141
10:00+8з257988 0.0 1015366
13:00+8з368281 0.1 1013563
16:00+7зсз3785100 0.1 1011647
19:00+6сз397598 0.2 1011648
22:00+5сз4883100 0.0 1012759